STARLINK-32420, 61931

Orbit data source: Space-Track

STARLINK-32420, 61931 is a payload satellite owned by SpaceX/Seattle (US) in LEO that was launched on Mon, 11 Nov 2024 UTC via an FALCON 9 launch vehicle from the Air Force Eastern Test Range (AFETR). Payload-class satellites include a variety of spacecraft equipped with specific instruments for various scientific and technological missions. These include communications satellites like Starlink; space stations such as the ISS; scientific satellites like the Hubble; Earth observation satellites from companies like Planet Labs, Umbra, and HawkEye 360; GPS; miniature CubeSats for education and research; and military/defense satellites.

Loading next visibility...
Identifier
61931, 2024-207V
Orbit
LEO
Country
Flag of USUS
Related business
Manufacturer
SpaceX/Seattle
Mission
Operational Commercial Communications
Bus & Motor
STARLINK V2M, Unknown motor
Mass
730 kg wet, ~700 kg dry
Launch date (UTC)
2024-11-11 (2 years ago)
Launch vehicle
FALCON 9
Launch site
Air Force Eastern Test Range (AFETR)
Object type
Payload
Rocket body
Debris
Shape & HBR
Box + 2 Pan, 17.7 m
Radar Cross Section
33.884 m², Large (>1 m²)

Expand to show TLE details & history
Last TLE update: 15 hours ago

TLE from 15 hours ago
0 STARLINK-32420
1 61931U 24207V   26145.44199251  .00015485  00000-0  57044-3 0  9994
2 61931  43.0022 208.0020 0001977 281.1346  78.9283 15.27615863 86469
Epoch: 2026-05-25T10:36Z
TLE epoch observation values (Epoch: 2026-05-25T10:36:28.152Z)
Latitude
-0.00006°
Longitude
165.85491°
Altitude
482.457 km
Speed
7.626 km/s
True Right ascension
13h 52m 00s
True Declination
0° 00' 00"
Sunlit
Object was in full shadow at epoch
Visualization orbit readout
Latitude
Unknown
Longitude
Unknown
Altitude
Unknown
Speed
Unknown
Apparent Right ascension
Unknown
Apparent Declination
Unknown
Sunlit
N/A
Visualization observer readout
Local Sidereal Time
11:08:12
Azimuth
Unknown
Elevation
Unknown
Doppler factor
Unknown
Orbital elements
Apogee altitude
486.243 km
Perigee altitude
483.53 km
Semi-major axis
6,863.024 km
Eccentricity
0.0002
Inclination
43.0022°
RAAN
208.002°
Arg. of periapsis
281.1346°
True anomaly
78.95053°
Mean anomaly
78.9283°
Eccentric anomaly
78.93942°
Mean motion
3.81742 °/min
Orbital period
94.3 mins
BSTAR
0.00057044
Loading maneuver chart data...
Computing Atmospheric mass density...
Loading historical data...
Loading historical data...
Loading historical data...
Loading historical data...
Loading historical data...
Loading historical data...
Loading historical data...

Documentation

Showing up to 5 results
|